This demonstration page uses our WeatherBlox Daily Observations layout. Learn more.

Hourly Observations for March 11, 2020

Temp ( °F °C ) Dew Point ( °F °C ) Humidity (%) Winds ( mph kmh ) Pressure ( in mb ) Visibility ( mi km ) Precip ( " mm )
12:15 am 00:15 Clear 54 12 46 8 77 77 NW 22 35 30.12 1020 10 16.0934 0 0
12:35 am 00:35 Clear 54 12 46 8 77 77 NNW 12 19 30.13 1020 10 16.0934 0 0
12:55 am 00:55 Clear 52 11 45 7 77 77 NNW 14 22 30.14 1021 10 16.0934 0 0
1:15 am 01:15 Clear 52 11 45 7 77 77 NNW 13 20 30.15 1021 10 16.0934 0 0
1:35 am 01:35 Clear 52 11 43 6 72 72 NNW 5 7 30.15 1021 10 16.0934 0 0
1:55 am 01:55 Clear 50 10 43 6 76 76 NNW 7 11 30.17 1022 10 16.0934 0 0
2:15 am 02:15 Clear 50 10 43 6 76 76 NNE 5 7 30.17 1022 10 16.0934 0 0
2:35 am 02:35 Clear 50 10 43 6 76 76 N 10 17 30.16 1021 10 16.0934 0 0
2:55 am 02:55 Clear 50 10 41 5 71 71 N 10 17 30.16 1021 10 16.0934 0 0
3:15 am 03:15 Clear 50 10 41 5 71 71 ENE 6 9 30.17 1022 10 16.0934 0 0
3:35 am 03:35 Clear 48 9 41 5 76 76 NE 5 7 30.17 1022 10 16.0934 0 0
3:55 am 03:55 Clear 46 8 41 5 82 82 NNW 13 20 30.16 1021 10 16.0934 0 0
4:15 am 04:15 Clear 46 8 41 5 82 82 N 8 13 30.16 1021 10 16.0934 0 0
4:35 am 04:35 Clear 46 8 41 5 82 82 N 3 6 30.16 1021 10 16.0934 0 0
4:55 am 04:55 Clear 45 7 39 4 81 81 N 9 15 30.16 1021 10 16.0934 0 0
5:15 am 05:15 Clear 45 7 39 4 81 81 N 3 6 30.16 1021 10 16.0934 0 0
5:35 am 05:35 Clear 45 7 39 4 81 81 N 6 9 30.16 1021 10 16.0934 0 0
5:55 am 05:55 Clear 45 7 39 4 81 81 NE 5 7 30.16 1021 10 16.0934 0 0
6:15 am 06:15 Clear 43 6 37 3 81 81 N 6 9 30.16 1021 10 16.0934 0 0
6:35 am 06:35 Clear 43 6 37 3 81 81 NE 5 7 30.16 1021 10 16.0934 0 0
6:55 am 06:55 Clear 43 6 37 3 81 81 N 5 7 30.14 1021 10 16.0934 0 0
7:15 am 07:15 Clear 41 5 37 3 87 87 Calm 30.16 1021 10 16.0934 0 0
7:35 am 07:35 Sunny 41 5 37 3 87 87 Calm 30.15 1021 10 16.0934 0 0
7:55 am 07:55 Sunny 41 5 37 3 87 87 Calm 30.16 1021 10 16.0934 0 0
8:15 am 08:15 Sunny 41 5 37 3 87 87 Calm 30.16 1021 10 16.0934 0 0
8:35 am 08:35 Sunny 43 6 37 3 81 81 Calm 30.17 1022 10 16.0934 0 0
8:55 am 08:55 Sunny 43 6 37 3 81 81 Calm 30.17 1022 10 16.0934 0 0
9:15 am 09:15 Sunny 45 7 37 3 76 76 NNE 5 7 30.17 1022 10 16.0934 0 0
9:35 am 09:35 Sunny 45 7 37 3 76 76 Calm 30.17 1022 10 16.0934 0 0
9:55 am 09:55 Sunny 46 8 37 3 71 71 NE 3 6 30.17 1022 10 16.0934 0 0
10:15 am 10:15 Sunny 46 8 36 2 66 66 NE 6 9 30.17 1022 10 16.0934 0 0
10:35 am 10:35 Mostly Cloudy 48 9 36 2 62 62 NE 5 7 30.17 1022 10 16.0934 0 0
12:35 pm 12:35 Cloudy 50 10 36 2 58 58 Calm 30.14 1021 10 16.0934 0 0
12:55 pm 12:55 Cloudy 50 10 36 2 58 58 NNE 3 6 30.13 1020 10 16.0934 0 0
1:15 pm 13:15 Cloudy 50 10 36 2 58 58 NE 3 6 30.14 1021 10 16.0934 0 0
1:35 pm 13:35 Cloudy 50 10 36 2 58 58 NNE 3 6 30.14 1021 10 16.0934 0 0
1:55 pm 13:55 Cloudy 48 9 37 3 66 66 NE 6 9 30.13 1020 10 16.0934 0 0
2:15 pm 14:15 Cloudy 48 9 37 3 66 66 ENE 6 9 30.12 1020 10 16.0934 0 0
2:35 pm 14:35 Cloudy 48 9 37 3 66 66 E 6 9 30.1 1019 10 16.0934 0 0
2:55 pm 14:55 Cloudy 48 9 37 3 66 66 NE 3 6 30.09 1019 10 16.0934 0 0
3:15 pm 15:15 Cloudy 50 10 37 3 62 62 NE 5 7 30.09 1019 10 16.0934 0 0
3:35 pm 15:35 Cloudy 50 10 37 3 62 62 Calm 30.08 1018 10 16.0934 0 0
3:55 pm 15:55 Cloudy 50 10 37 3 62 62 N 3 6 30.09 1019 10 16.0934 0 0
4:15 pm 16:15 Cloudy 50 10 37 3 62 62 Calm 30.09 1019 10 16.0934 0 0
4:35 pm 16:35 Cloudy 50 10 37 3 62 62 NNE 3 6 30.07 1018 10 16.0934 0 0
4:55 pm 16:55 Mostly Cloudy 50 10 39 4 67 67 NE 5 7 30.07 1018 10 16.0934 0 0
5:15 pm 17:15 Cloudy 50 10 39 4 67 67 NE 3 6 30.07 1018 10 16.0934 0 0
5:35 pm 17:35 Cloudy 50 10 39 4 67 67 N 6 9 30.09 1019 10 16.0934 0 0
5:55 pm 17:55 Cloudy 50 10 39 4 67 67 N 3 6 30.09 1019 10 16.0934 0 0
6:15 pm 18:15 Cloudy 50 10 39 4 67 67 Calm 30.09 1019 10 16.0934 0 0
6:35 pm 18:35 Cloudy 50 10 39 4 67 67 ENE 7 11 30.08 1018 10 16.0934 0 0
6:55 pm 18:55 Cloudy 50 10 39 4 67 67 NE 6 9 30.07 1018 10 16.0934 0 0
7:15 pm 19:15 Cloudy 50 10 39 4 67 67 NE 6 9 30.08 1018 10 16.0934 0 0
7:35 pm 19:35 Cloudy 48 9 39 4 71 71 NNE 7 11 30.09 1019 10 16.0934 0 0
7:55 pm 19:55 Cloudy 48 9 41 5 76 76 NNE 5 7 30.09 1019 10 16.0934 0 0
8:15 pm 20:15 Cloudy 46 8 41 5 82 82 NNE 3 6 30.08 1019 10 16.0934 0 0
8:35 pm 20:35 Mostly Cloudy 46 8 41 5 82 82 NE 3 6 30.08 1019 10 16.0934 0 0
8:55 pm 20:55 Partly Cloudy 46 8 39 4 76 76 Calm 30.07 1018 10 16.0934 0 0
9:15 pm 21:15 Clear 45 7 39 4 81 81 Calm 30.08 1019 10 16.0934 0 0
9:35 pm 21:35 Mostly Cloudy 45 7 41 5 87 87 N 5 7 30.09 1019 10 16.0934 0 0
9:55 pm 21:55 Mostly Cloudy 45 7 41 5 87 87 N 7 11 30.1 1019 10 16.0934 0 0
10:15 pm 22:15 Mostly Cloudy 45 7 41 5 87 87 N 3 6 30.1 1019 10 16.0934 0 0
10:35 pm 22:35 Cloudy 45 7 39 4 81 81 Calm 30.09 1019 10 16.0934 0 0
10:55 pm 22:55 Cloudy 45 7 39 4 81 81 Calm 30.1 1019 10 16.0934 0 0
11:15 pm 23:15 Cloudy 43 6 41 5 93 93 Calm 30.09 1019 10 16.0934 0 0
11:35 pm 23:35 Mostly Cloudy 43 6 41 5 93 93 Calm 30.09 1019 10 16.0934 0 0
11:55 pm 23:55 Partly Cloudy 43 6 39 4 87 87 Calm 30.09 1019 10 16.0934 0 0

Powered by AerisWeather